Location: Ferchesar
(52.6477°N, 12.4298°E)
Time: 07:33:24
(UTC+02:00)

Transit 4A - Pass Details

Date: 02 March 2021
Orbit: 869 x 976 km, 66.8° (Epoch: 12 April)

Event Time Altitude Azimuth Distance (km) Brightness Sun altitude
Rises 17:25:49 0° 317° (NW) 3,616 11.4 2.9°
Reaches altitude 10° 17:28:35 10° 325° (NW) 2,653 10.6 2.5°
Maximum altitude 17:34:19 38° 33° (NNE) 1,364 8.5 1.7°
Drops below altitude 10° 17:39:52 10° 101° (E) 2,574 9.7 0.9°
Sets 17:42:31 0° 109° (ESE) 3,496 10.4 0.5°
